• In Belgien
  • Länderverzeichnis
  • Für 7 Tage
  • Wassertemperatur
  • Satellitenkarten
  • Wetterkarte
  • Widgets
  • user-avatar
    Anmelden

    Stündliche Wetter Georgievka

    Heute, 18 Oktober, Donnerstag

    Zeit Temperatur Niederschläge Wind Luftdruck Luftfeuchtigkeit
    00:00 +7°C° 0 mm 3 m/S 764 mmHg 78%
    01:00 +5°C° 0 mm 3 m/S 764 mmHg 79%
    02:00 +6°C° 0 mm 2 m/S 764 mmHg 81%
    03:00 +5°C° 0 mm 2 m/S 764 mmHg 83%
    04:00 +5°C° 0 mm 2 m/S 765 mmHg 83%
    05:00 +4°C° 0 mm 2 m/S 765 mmHg 84%
    06:00 +4°C° 0 mm 2 m/S 765 mmHg 84%
    07:00 +5°C° 0 mm 2 m/S 765 mmHg 78%
    08:00 +7°C° 0 mm 2 m/S 765 mmHg 71%
    09:00 +8°C° 0 mm 2 m/S 765 mmHg 64%
    10:00 +9°C° 0 mm 2 m/S 765 mmHg 59%
    11:00 +10°C° 0 mm 3 m/S 765 mmHg 54%
    12:00 +11°C° 0 mm 3 m/S 765 mmHg 48%
    13:00 +11°C° 0 mm 3 m/S 765 mmHg 48%
    14:00 +11°C° 0 mm 3 m/S 764 mmHg 48%
    15:00 +11°C° 0 mm 3 m/S 764 mmHg 48%
    16:00 +10°C° 0 mm 2 m/S 764 mmHg 52%
    17:00 +9°C° 0 mm 2 m/S 764 mmHg 56%
    18:00 +8°C° 0 mm 2 m/S 764 mmHg 61%
    19:00 +7°C° 0 mm 2 m/S 764 mmHg 62%
    20:00 +7°C° 0 mm 2 m/S 763 mmHg 63%
    21:00 +7°C° 0 mm 3 m/S 763 mmHg 63%
    22:00 +7°C° 0 mm 3 m/S 763 mmHg 65%
    23:00 +7°C° 0 mm 3 m/S 763 mmHg 66%

    Morgen, 19 Oktober, Freitag

    Zeit Temperatur Niederschläge Wind Luftdruck Luftfeuchtigkeit
    00:00 +7°C° 0 mm 3 m/S 763 mmHg 67%
    01:00 +7°C° 0 mm 3 m/S 762 mmHg 69%
    02:00 +6°C° 0 mm 4 m/S 762 mmHg 71%
    03:00 +6°C° 0 mm 4 m/S 762 mmHg 73%
    04:00 +6°C° 0 mm 4 m/S 762 mmHg 75%
    05:00 +5°C° 0 mm 4 m/S 761 mmHg 77%
    06:00 +5°C° 0 mm 4 m/S 761 mmHg 79%
    07:00 +7°C° 0 mm 4 m/S 761 mmHg 77%
    08:00 +8°C° 0 mm 5 m/S 761 mmHg 74%
    09:00 +9°C° 0 mm 5 m/S 761 mmHg 71%
    10:00 +12°C° 0 mm 5 m/S 760 mmHg 68%
    11:00 +13°C° 0 mm 6 m/S 760 mmHg 64%
    12:00 +15°C° 0 mm 6 m/S 760 mmHg 61%
    13:00 +15°C° 0 mm 6 m/S 760 mmHg 61%
    14:00 +15°C° 0 mm 5 m/S 759 mmHg 61%
    15:00 +15°C° 0 mm 5 m/S 759 mmHg 60%
    16:00 +14°C° 0 mm 5 m/S 759 mmHg 65%
    17:00 +13°C° 0 mm 4 m/S 759 mmHg 70%
    18:00 +12°C° 0 mm 4 m/S 759 mmHg 74%
    19:00 +12°C° 0 mm 4 m/S 759 mmHg 74%
    20:00 +12°C° 0 mm 4 m/S 759 mmHg 74%
    21:00 +12°C° 0 mm 4 m/S 759 mmHg 74%
    22:00 +12°C° 0 mm 4 m/S 759 mmHg 74%
    23:00 +12°C° 0 mm 4 m/S 758 mmHg 74%

    übermorgen, 20 Oktober, Samstag

    Zeit Temperatur Niederschläge Wind Luftdruck Luftfeuchtigkeit
    00:00 +11°C° 0 mm 4 m/S 758 mmHg 74%
    01:00 +11°C° 0 mm 4 m/S 758 mmHg 74%
    02:00 +10°C° 0 mm 5 m/S 758 mmHg 74%
    03:00 +9°C° 0 mm 5 m/S 757 mmHg 75%
    04:00 +9°C° 0 mm 5 m/S 757 mmHg 74%
    05:00 +9°C° 0 mm 5 m/S 757 mmHg 74%
    06:00 +8°C° 0 mm 5 m/S 756 mmHg 74%
    07:00 +9°C° 0 mm 5 m/S 756 mmHg 70%
    08:00 +10°C° 0 mm 6 m/S 756 mmHg 66%
    09:00 +11°C° 0 mm 6 m/S 756 mmHg 62%
    10:00 +13°C° 0 mm 6 m/S 756 mmHg 60%
    11:00 +14°C° 0 mm 6 m/S 756 mmHg 58%
    12:00 +15°C° 0 mm 6 m/S 756 mmHg 56%
    13:00 +14°C° 0.2 mm 6 m/S 756 mmHg 61%
    14:00 +14°C° 0.2 mm 5 m/S 756 mmHg 66%
    15:00 +13°C° 0.2 mm 5 m/S 756 mmHg 71%
    16:00 +12°C° 0.1 mm 4 m/S 756 mmHg 76%
    17:00 +11°C° 0.1 mm 4 m/S 757 mmHg 81%
    18:00 +11°C° 0.1 mm 3 m/S 757 mmHg 86%
    19:00 +10°C° 0 mm 3 m/S 757 mmHg 87%
    20:00 +9°C° 0 mm 2 m/S 758 mmHg 87%
    21:00 +8°C° 0 mm 2 m/S 758 mmHg 87%
    22:00 +7°C° 0 mm 2 m/S 758 mmHg 87%
    23:00 +7°C° 0 mm 2 m/S 759 mmHg 87%

    21 Oktober, Sonntag

    Zeit Temperatur Niederschläge Wind Luftdruck Luftfeuchtigkeit
    00:00 +6°C° 0 mm 2 m/S 759 mmHg 87%
    01:00 +6°C° 0 mm 2 m/S 759 mmHg 87%
    02:00 +7°C° 0 mm 1 m/S 759 mmHg 88%
    03:00 +6°C° 0 mm 1 m/S 760 mmHg 88%
    04:00 +6°C° 0 mm 1 m/S 760 mmHg 88%
    05:00 +6°C° 0 mm 1 m/S 760 mmHg 89%
    06:00 +5°C° 0 mm 1 m/S 760 mmHg 89%
    07:00 +6°C° 0 mm 1 m/S 761 mmHg 84%
    08:00 +8°C° 0 mm 1 m/S 761 mmHg 78%
    09:00 +9°C° 0 mm 1 m/S 761 mmHg 72%
    10:00 +10°C° 0 mm 1 m/S 761 mmHg 68%
    11:00 +10°C° 0 mm 1 m/S 761 mmHg 63%
    12:00 +11°C° 0 mm 1 m/S 761 mmHg 59%
    13:00 +11°C° 0 mm 1 m/S 761 mmHg 58%
    14:00 +10°C° 0 mm 2 m/S 761 mmHg 58%
    15:00 +10°C° 0 mm 2 m/S 762 mmHg 58%
    16:00 +9°C° 0 mm 2 m/S 762 mmHg 63%
    17:00 +8°C° 0 mm 2 m/S 762 mmHg 68%
    18:00 +7°C° 0 mm 2 m/S 762 mmHg 73%
    19:00 +7°C° 0 mm 2 m/S 762 mmHg 75%
    20:00 +6°C° 0 mm 2 m/S 763 mmHg 78%
    21:00 +6°C° 0 mm 2 m/S 763 mmHg 80%
    22:00 +5°C° 0 mm 2 m/S 763 mmHg 81%
    23:00 +6°C° 0 mm 1 m/S 763 mmHg 82%

    22 Oktober, Montag

    Zeit Temperatur Niederschläge Wind Luftdruck Luftfeuchtigkeit
    00:00 +6°C° 0 mm 1 m/S 763 mmHg 83%
    01:00 +5°C° 0 mm 1 m/S 763 mmHg 84%
    02:00 +5°C° 0 mm 1 m/S 764 mmHg 84%
    03:00 +5°C° 0 mm 1 m/S 764 mmHg 84%
    04:00 +5°C° 0 mm 1 m/S 764 mmHg 85%
    05:00 +4°C° 0 mm 1 m/S 764 mmHg 86%
    06:00 +4°C° 0 mm 1 m/S 764 mmHg 86%
    07:00 +5°C° 0 mm 1 m/S 764 mmHg 80%
    08:00 +6°C° 0 mm 1 m/S 764 mmHg 74%
    09:00 +8°C° 0 mm 1 m/S 764 mmHg 68%
    10:00 +9°C° 0 mm 1 m/S 764 mmHg 63%
    11:00 +10°C° 0 mm 1 m/S 764 mmHg 58%
    12:00 +10°C° 0 mm 1 m/S 764 mmHg 53%
    13:00 +10°C° 0 mm 1 m/S 764 mmHg 53%
    14:00 +11°C° 0 mm 1 m/S 764 mmHg 52%
    15:00 +11°C° 0 mm 1 m/S 764 mmHg 52%
    16:00 +9°C° 0 mm 1 m/S 764 mmHg 56%
    17:00 +8°C° 0 mm 1 m/S 764 mmHg 61%
    18:00 +7°C° 0 mm 1 m/S 764 mmHg 66%
    19:00 +7°C° 0 mm 1 m/S 764 mmHg 68%
    20:00 +6°C° 0 mm 1 m/S 764 mmHg 69%
    21:00 +6°C° 0 mm 1 m/S 764 mmHg 71%
    22:00 +6°C° 0 mm 1 m/S 763 mmHg 72%
    23:00 +5°C° 0 mm 1 m/S 763 mmHg 74%

    23 Oktober, Dienstag

    Zeit Temperatur Niederschläge Wind Luftdruck Luftfeuchtigkeit
    00:00 +4°C° 0 mm 2 m/S 763 mmHg 75%
    01:00 +4°C° 0 mm 2 m/S 763 mmHg 77%
    02:00 +4°C° 0 mm 2 m/S 763 mmHg 78%
    03:00 +3°C° 0 mm 2 m/S 763 mmHg 79%
    04:00 +3°C° 0 mm 2 m/S 762 mmHg 79%
    05:00 +3°C° 0 mm 2 m/S 762 mmHg 80%
    06:00 +3°C° 0 mm 2 m/S 762 mmHg 80%
    07:00 +4°C° 0 mm 2 m/S 762 mmHg 75%
    08:00 +4°C° 0 mm 3 m/S 762 mmHg 70%
    09:00 +5°C° 0 mm 3 m/S 762 mmHg 65%
    10:00 +8°C° 0 mm 3 m/S 762 mmHg 61%
    11:00 +9°C° 0 mm 3 m/S 762 mmHg 57%
    12:00 +10°C° 0 mm 3 m/S 761 mmHg 53%
    13:00 +10°C° 0.1 mm 3 m/S 761 mmHg 55%
    14:00 +10°C° 0.1 mm 2 m/S 761 mmHg 58%
    15:00 +9°C° 0.1 mm 2 m/S 760 mmHg 60%
    16:00 +9°C° 0 mm 2 m/S 760 mmHg 60%
    17:00 +9°C° 0 mm 2 m/S 760 mmHg 61%
    18:00 +9°C° 0 mm 2 m/S 760 mmHg 61%
    19:00 +9°C° 0.1 mm 2 m/S 760 mmHg 64%
    20:00 +9°C° 0.1 mm 2 m/S 760 mmHg 67%
    21:00 +8°C° 0.1 mm 2 m/S 759 mmHg 70%
    22:00 +8°C° 0.1 mm 2 m/S 759 mmHg 71%
    23:00 +8°C° 0.1 mm 2 m/S 759 mmHg 73%
    Mehr zeigen